{"data":{"norad_id":49288,"intl_designator":"2021-090K","name":"ONEWEB-0362","alt_names":[],"object_type":"PAYLOAD","status":"ACTIVE","operator":null,"country":"UK","launch_date":"2021-10-14","launch_site_code":"VOSTO","launch_vehicle":null,"mission":null,"orbit_class":"UNKNOWN","rcs_meters":null,"size_class":null,"mass_kg":null,"dimensions":null,"purposes":["comms"],"wikipedia_slug":null,"has_3d_model":false,"image_url":null,"decayed_at":null,"tle_current":{"epoch":"2026-05-24T23:27:17.596800Z","epoch_age_seconds":70338,"freshness":"FRESH","line1":"1 49288U 21090K   26144.97728700 -.00000037  00000+0 -12503-3 0  9995","line2":"2 49288  87.9150 309.6054 0001562  98.5880 261.5430 13.19726482223856","mean_motion":13.19726482,"eccentricity":0.0001562,"inclination_deg":87.915,"raan_deg":309.6054,"arg_perigee_deg":98.588,"mean_anomaly_deg":261.543,"bstar":-0.00012503,"rev_number":22385,"period_min":109.11351856922,"perigee_km":1184.583407878,"apogee_km":1186.9463708283,"semimajor_km":7563.9018893532,"source":"CELESTRAK","updated_at":"2026-05-25T13:38:22.521003Z"}}}